Location: Boćki
(52.6512°N, 23.0459°E)
Time: 05:20:25
(UTC+01:00)

ISS - Pass Details

Date: 26 January 2019
Orbit: 403 x 411 km, 51.6° (Epoch: 21 February)

Event Time Altitude Azimuth Distance (km) Brightness Sun altitude
Rises 17:36:48 0° 224° (SW) 2,327 1.0 -14.2°
Reaches altitude 10° 17:39:02 10° 212° (SSW) 1,471 -0.4 -14.5°
Maximum altitude 17:41:55 28° 151° (SSE) 806 -2.5 -15.0°
Enters shadow 17:42:46 24° 123° (ESE) 887 -2.5 -15.1°
